| time (UTC) | temp C | wind direction | speed KPH | gust KPH | rain 1hr cm | rain 24hr cm | rain mn cm | humidity % | barometer mb |
| 20260506062419 | 6 | 176 | 1.6 | 3.2 | 0.00 | 0.00 | 4.27 | 73 | 1013.3 |
| 20260506061516 | 6 | 167 | 3.2 | 6.4 | 0.00 | 0.00 | 4.27 | 74 | 1013.5 |
| 20260505223629 | 7 | 326 | 11.3 | 17.7 | 0.00 | 0.00 | 0.00 | 45 | 1013.7 |
| 20260505221830 | 7 | 326 | 11.3 | 19.3 | 0.00 | 0.00 | 0.00 | 44 | 1013.9 |
| 20260505220930 | 7 | 336 | 9.7 | 17.7 | 0.00 | 0.00 | 0.00 | 43 | 1013.7 |
| 20260505220030 | 7 | 345 | 9.7 | 20.9 | 0.00 | 0.00 | 0.00 | 43 | 1013.9 |
| 20260505215130 | 7 | 333 | 9.7 | 17.7 | 0.00 | 0.00 | 0.00 | 41 | 1013.9 |
| 20260505214230 | 7 | 327 | 8.0 | 16.1 | 0.00 | 0.00 | 0.00 | 47 | 1013.8 |
| 20260505213330 | 7 | 325 | 9.7 | 20.9 | 0.00 | 0.00 | 0.00 | 41 | 1014.0 |
| 20260505212430 | 7 | 333 | 8.0 | 14.5 | 0.00 | 0.00 | 0.00 | 47 | 1014.1 |
| 20260505211530 | 7 | 334 | 11.3 | 19.3 | 0.00 | 0.00 | 0.00 | 41 | 1013.9 |
| 20260505210630 | 7 | 338 | 9.7 | 19.3 | 0.00 | 0.00 | 0.00 | 42 | 1014.1 |
| 20260505205730 | 7 | 337 | 8.0 | 17.7 | 0.00 | 0.00 | 0.00 | 42 | 1014.1 |
| 20260505204830 | 7 | 312 | 9.7 | 20.9 | 0.00 | 0.00 | 0.00 | 42 | 1014.2 |
| 20260505203930 | 7 | 348 | 6.4 | 12.9 | 0.00 | 0.00 | 0.00 | 47 | 1014.2 |
| 20260505202130 | 7 | 347 | 11.3 | 27.4 | 0.00 | 0.00 | 0.00 | 40 | 1014.0 |
| 20260505201231 | 7 | 333 | 11.3 | 19.3 | 0.00 | 0.00 | 0.00 | 40 | 1013.9 |
| 20260505200330 | 7 | 318 | 9.7 | 20.9 | 0.00 | 0.00 | 0.00 | 40 | 1014.1 |
| 20260505195430 | 7 | 317 | 8.0 | 20.9 | 0.00 | 0.00 | 0.00 | 41 | 1014.1 |
| 20260505194531 | 7 | 325 | 9.7 | 17.7 | 0.00 | 0.00 | 0.00 | 41 | 1014.3 |
| 20260505193630 | 8 | 333 | 8.0 | 16.1 | 0.00 | 0.00 | 0.00 | 40 | 1014.1 |
| 20260505192730 | 8 | 348 | 9.7 | 20.9 | 0.00 | 0.00 | 0.00 | 40 | 1014.1 |
| 20260505191830 | 8 | 334 | 11.3 | 19.3 | 0.00 | 0.00 | 0.00 | 40 | 1013.9 |
| 20260505190030 | 9 | 342 | 9.7 | 17.7 | 0.00 | 0.00 | 0.00 | 37 | 1014.0 |
| 20260505185130 | 10 | 356 | 11.3 | 27.4 | 0.00 | 0.00 | 0.00 | 36 | 1014.2 |
| 20260505184230 | 10 | 335 | 9.7 | 27.4 | 0.00 | 0.00 | 0.00 | 37 | 1014.1 |
| 20260505183330 | 10 | 320 | 9.7 | 17.7 | 0.00 | 0.00 | 0.00 | 38 | 1013.9 |
| 20260505182430 | 10 | 357 | 9.7 | 17.7 | 0.00 | 0.00 | 0.00 | 37 | 1014.1 |
| 20260505181530 | 10 | 330 | 12.9 | 25.7 | 0.00 | 0.00 | 0.00 | 37 | 1014.0 |
| 20260505180630 | 11 | 322 | 9.7 | 17.7 | 0.00 | 0.00 | 0.00 | 36 | 1014.0 |
| 20260505174830 | 11 | 332 | 9.7 | 16.1 | 0.00 | 0.00 | 0.00 | 38 | 1014.0 |
| 20260505173930 | 11 | 338 | 11.3 | 20.9 | 0.00 | 0.00 | 0.00 | 38 | 1014.0 |
| 20260505173030 | 11 | 335 | 14.5 | 27.4 | 0.00 | 0.00 | 0.00 | 37 | 1013.9 |
| 20260505172130 | 12 | 325 | 11.3 | 24.1 | 0.00 | 0.00 | 0.00 | 37 | 1013.9 |
| 20260505171230 | 12 | 328 | 9.7 | 24.1 | 0.00 | 0.00 | 0.00 | 36 | 1013.9 |
| 20260505170330 | 12 | 327 | 11.3 | 24.1 | 0.00 | 0.00 | 0.00 | 38 | 1014.0 |
| 20260505165430 | 11 | 340 | 14.5 | 24.1 | 0.00 | 0.00 | 0.00 | 37 | 1014.1 |
| 20260505163630 | 11 | 335 | 16.1 | 24.1 | 0.00 | 0.00 | 0.00 | 40 | 1014.1 |
| 20260505162730 | 11 | 329 | 16.1 | 27.4 | 0.00 | 0.00 | 0.00 | 40 | 1013.8 |
| 20260505161830 | 11 | 319 | 16.1 | 22.5 | 0.00 | 0.00 | 0.00 | 40 | 1013.9 |
| 20260505160930 | 11 | 334 | 16.1 | 27.4 | 0.00 | 0.00 | 0.00 | 40 | 1014.0 |
| 20260505152430 | 11 | 346 | 16.1 | 27.4 | 0.00 | 0.00 | 0.00 | 41 | 1014.0 |
| 20260505150630 | 12 | 326 | 16.1 | 24.1 | 0.00 | 0.00 | 0.00 | 43 | 1013.9 |
| 20260505124230 | 12 | 337 | 12.9 | 17.7 | 0.00 | 0.00 | 0.00 | 41 | 1013.5 |
| 20260505123330 | 12 | 330 | 12.9 | 22.5 | 0.00 | 0.00 | 0.00 | 41 | 1013.9 |
| 20260505122430 | 13 | 331 | 11.3 | 17.7 | 0.00 | 0.00 | 0.00 | 41 | 1013.7 |
| 20260505121530 | 13 | 328 | 12.9 | 17.7 | 0.00 | 0.00 | 0.00 | 42 | 1013.8 |
| 20260505120630 | 13 | 319 | 11.3 | 17.7 | 0.00 | 0.00 | 0.00 | 41 | 1013.8 |
| 20260505115730 | 13 | 304 | 12.9 | 17.7 | 0.00 | 0.00 | 0.00 | 41 | 1013.8 |
| 20260505114830 | 13 | 331 | 12.9 | 19.3 | 0.00 | 0.00 | 0.00 | 43 | 1013.9 |
| 20260505113930 | 12 | 322 | 12.9 | 19.3 | 0.00 | 0.00 | 0.00 | 43 | 1013.6 |
| 20260505113030 | 12 | 316 | 14.5 | 20.9 | 0.00 | 0.00 | 0.00 | 43 | 1014.0 |
| 20260505112130 | 12 | 336 | 14.5 | 22.5 | 0.00 | 0.00 | 0.00 | 42 | 1013.9 |
| 20260505111230 | 12 | 321 | 14.5 | 24.1 | 0.00 | 0.00 | 0.00 | 41 | 1013.7 |
| 20260505101830 | 13 | 335 | 12.9 | 17.7 | 0.00 | 0.00 | 0.00 | 36 | 1013.8 |
| 20260505100030 | 13 | 310 | 9.7 | 16.1 | 0.00 | 0.00 | 0.00 | 36 | 1013.7 |
| 20260505095130 | 14 | 330 | 6.4 | 12.9 | 0.00 | 0.00 | 0.00 | 37 | 1013.5 |
| 20260505094230 | 13 | 333 | 8.0 | 14.5 | 0.00 | 0.00 | 0.00 | 38 | 1013.6 |
| 20260505092430 | 13 | 324 | 8.0 | 17.7 | 0.00 | 0.00 | 0.00 | 40 | 1013.7 |
| 20260505091530 | 13 | 347 | 11.3 | 17.7 | 0.00 | 0.00 | 0.00 | 40 | 1013.6 |
| 20260505090630 | 13 | 337 | 9.7 | 17.7 | 0.00 | 0.00 | 0.00 | 40 | 1013.7 |
| 20260505085730 | 13 | 338 | 8.0 | 14.5 | 0.00 | 0.00 | 0.00 | 42 | 1013.7 |
| 20260505084832 | 13 | 338 | 8.0 | 14.5 | 0.00 | 0.00 | 0.00 | 42 | 1013.5 |
| 20260505083930 | 12 | 330 | 9.7 | 19.3 | 0.00 | 0.00 | 0.00 | 41 | 1013.7 |
| 20260505082130 | 12 | 331 | 12.9 | 17.7 | 0.00 | 0.00 | 0.00 | 43 | 1013.6 |
| 20260505081230 | 12 | 333 | 9.7 | 16.1 | 0.00 | 0.00 | 0.00 | 41 | 1013.7 |
| 20260505080330 | 12 | 356 | 11.3 | 19.3 | 0.00 | 0.00 | 0.00 | 42 | 1013.7 |
| 20260505075430 | 12 | 337 | 8.0 | 16.1 | 0.00 | 0.00 | 0.00 | 43 | 1013.4 |
| 20260505073630 | 12 | 333 | 8.0 | 14.5 | 0.00 | 0.00 | 0.00 | 49 | 1013.5 |
| 20260505071830 | 11 | 333 | 9.7 | 16.1 | 0.00 | 0.00 | 0.00 | 56 | 1013.7 |
| 20260505070930 | 11 | 336 | 6.4 | 12.9 | 0.00 | 0.00 | 0.00 | 61 | 1013.4 |
| 20260505070030 | 10 | 319 | 8.0 | 17.7 | 0.00 | 0.00 | 0.00 | 62 | 1013.5 |
| 20260505065130 | 10 | 326 | 6.4 | 12.9 | 0.00 | 0.00 | 0.00 | 65 | 1013.4 |
| 20260505064230 | 9 | 336 | 6.4 | 12.9 | 0.00 | 0.00 | 0.00 | 68 | 1013.4 |